[[{"header":{"parameterUnit":"m.s-1","parameterCategory":1,"la1":30.2991,"la2":30.254,"lo1":-89.0895,"lo2":-89.0444,"dy":0.0017,"dx":0.0017,"nx":28,"ny":28,"refTime":"2024-08-03T21:00:00:Z","depth":0,"parameterNumber":2,"parameterNumberName":"U-component_of_WINDS"},"data":[0,0,0,0,0,0,0,0,0,0,0,0,0,0,0,0,0,0,0,0,0,0,0,0,0,0,0,0,0,0,0,0,0,0,0,0,0,0,0,0,0,0,0,0,0,0,0,0,0,0,0,0,0,0,0,0,0,0,-0.5914,-0.5916,0,-0.6023,-0.6024,-0.6026,-0.6049,-0.6048,-0.6047,-0.6047,-0.6164,-0.6167,-0.6171,0,0,0,0,0,0,0,0,0,0,0,0,0,-0.5734,-0.5737,-0.5914,-0.5916,-0.5917,-0.6023,-0.6024,-0.6026,-0.6049,-0.6048,-0.6047,-0.6046,-0.6162,-0.6167,-0.6172,0,0,0,0,0,0,0,0,0,0,0,0,0,-0.5824,-0.5738,-0.5914,-0.5941,-0.5945,-0.6023,-0.6025,-0.6026,-0.6049,-0.6048,-0.6047,-0.6046,-0.6161,-0.6166,-0.6172,-0.6232,0,0,-0.619,-0.6192,0,0,0,0,0,0,0,0,-0.5819,-0.5831,-0.5936,-0.594,-0.5944,-0.6021,-0.6004,-0.6096,-0.605,-0.601,-0.6047,-0.6045,-0.6118,-0.6127,-0.615,-0.6238,-0.6243,-0.619,-0.6194,-0.6197,-0.6198,0,0,0,0,0,0,0,-0.5813,-0.5826,-0.5958,-0.5937,-0.5942,-0.595,-0.5962,-0.6021,-0.6069,-0.6013,-0.6015,-0.6027,-0.612,-0.6144,-0.6153,-0.6245,-0.619,-0.6195,-0.6199,-0.6201,-0.639,-0.6391,0,0,0,0,0,0,-0.5801,-0.5821,-0.5954,-0.5961,-0.5877,-0.5954,-0.5967,-0.5998,-0.6069,-0.6078,-0.6028,-0.6028,-0.6135,-0.6146,-0.6157,-0.6234,-0.6196,-0.6202,-0.6205,-0.6388,-0.639,-0.6392,0,0,0,0,0,0,-0.5797,-0.5812,-0.595,-0.5891,-0.591,-0.5959,-0.5993,-0.6,-0.6025,-0.608,-0.6089,-0.6044,-0.6135,-0.6149,-0.6214,-0.6238,-0.6205,-0.621,-0.6386,-0.6389,-0.6391,-0.6386,0,0,0,0,0,0,-0.5792,-0.5811,-0.5832,-0.5892,-0.5912,-0.6002,-0.5994,-0.6003,-0.6035,-0.6035,-0.6098,-0.6107,-0.6135,-0.6205,-0.6219,-0.6245,-0.6214,-0.6385,-0.6388,-0.639,-0.6384,-0.6388,-0.6391,0,0,0,0,0,-0.5785,-0.5828,-0.5833,-0.5849,-0.594,-0.6003,-0.6016,-0.6045,-0.6036,-0.606,-0.6095,-0.6105,-0.6233,-0.6211,-0.6228,-0.6256,-0.6383,-0.6387,-0.639,-0.6383,-0.6387,-0.6391,0,0,0,0,0,0,-0.5772,-0.5836,-0.5843,-0.5906,-0.5949,-0.6007,-0.6037,-0.6049,-0.6096,-0.6095,-0.6132,-0.6146,-0.6208,-0.6239,-0.6214,-0.6319,-0.6308,-0.6315,-0.6297,-0.6301,-0.6305,-0.6296,-0.6219,0,0,0,0,0,-0.5776,-0.582,-0.5874,-0.5924,-0.5945,-0.5988,-0.6016,-0.6035,-0.6082,-0.6101,-0.6141,-0.6188,-0.6239,-0.6272,-0.6322,-0.6389,-0.6404,-0.6417,-0.642,-0.6422,-0.6428,-0.6468,-0.6474,-0.6403,-0.6403,-0.6403,0,0,-0.5785,-0.5826,-0.5851,-0.5923,-0.5958,-0.6005,-0.6003,-0.6052,-0.6088,-0.6109,-0.6172,-0.6204,-0.6259,-0.6325,-0.6356,-0.6352,-0.6451,-0.6427,-0.6428,-0.6433,-0.6472,-0.6478,-0.6484,-0.6405,-0.6405,-0.6405,0,0,-0.5826,-0.586,-0.5906,-0.5942,-0.5996,-0.6024,-0.6035,-0.6092,-0.6113,-0.6177,-0.6194,-0.6239,-0.6325,-0.6364,-0.6395,-0.6452,-0.6464,-0.6468,-0.6485,-0.6523,-0.6529,-0.6534,-0.6556,-0.6563,-0.6473,-0.6473,-0.6473,0,-0.5832,-0.5901,-0.5929,-0.5978,-0.601,-0.603,-0.6078,-0.6112,-0.618,-0.6202,-0.6197,-0.6306,-0.6345,-0.6421,-0.6435,-0.6459,-0.6475,-0.6461,-0.6525,-0.6531,-0.6536,-0.6557,-0.6565,-0.6473,-0.6473,-0.6473,-0.6473,0,-0.5905,-0.5953,-0.5985,-0.6048,-0.6083,-0.6132,-0.617,-0.6203,-0.6219,-0.6248,-0.6314,-0.6361,-0.6421,-0.6441,-0.6458,-0.6521,-0.6517,-0.6518,-0.6507,-0.6543,-0.6563,-0.6571,-0.6474,-0.6473,-0.6473,-0.6473,0,0,-0.594,-0.6019,-0.603,-0.606,-0.6121,-0.616,-0.621,-0.6268,-0.6296,-0.6343,-0.6387,-0.646,-0.6462,-0.6497,-0.6519,-0.6552,-0.6597,-0.655,-0.6552,-0.6558,-0.6671,-0.667,-0.6678,-0.6604,-0.6606,-0.6607,-0.6666,0,-0.599,-0.6077,-0.6106,-0.618,-0.6226,-0.6246,-0.6291,-0.6334,-0.6364,-0.6409,-0.6442,-0.6494,-0.6491,-0.6513,-0.6547,-0.6584,-0.662,-0.658,-0.6648,-0.665,-0.6634,-0.6689,-0.6688,-0.6741,-0.6674,-0.6676,-0.6677,0,-0.6058,-0.6104,-0.6183,-0.6239,-0.626,-0.6298,-0.6354,-0.6396,-0.6447,-0.6466,-0.6506,-0.6526,-0.6582,-0.6568,-0.6647,-0.6619,-0.6649,-0.6672,-0.6675,-0.6682,-0.6666,-0.6699,-0.6758,-0.6767,-0.6689,-0.6688,-0.6688,0,-0.6077,-0.6159,-0.6217,-0.6242,-0.6309,-0.6336,-0.6366,-0.6415,-0.6448,-0.6498,-0.652,-0.6576,-0.6607,-0.6651,-0.6686,-0.6672,-0.6763,-0.6751,-0.6782,-0.6781,-0.68,-0.6798,-0.6865,-0.6818,-0.6818,-0.6818,-0.6818,0,-0.6129,-0.6177,-0.6226,-0.6262,-0.6317,-0.635,-0.6404,-0.6435,-0.6479,-0.6523,-0.6545,-0.6586,-0.6629,-0.6677,-0.6705,-0.6767,-0.6781,-0.68,-0.6807,-0.6798,-0.6796,-0.6818,-0.6816,-0.682,-0.6819,-0.6819,-0.6819,0,-0.6159,-0.6194,-0.6259,-0.6317,-0.6333,-0.6371,-0.6422,-0.6459,-0.6489,-0.6544,-0.6559,-0.6608,-0.6665,-0.6704,-0.6778,-0.6797,-0.6865,-0.6871,-0.6847,-0.6851,-0.6879,-0.6876,-0.6964,-0.6978,-0.692,-0.692,-0.6921,0,-0.619,-0.6227,-0.6289,-0.6319,-0.6348,-0.6396,-0.643,-0.6465,-0.65,-0.6561,-0.6591,-0.665,-0.6698,-0.679,-0.6833,-0.689,-0.6898,-0.6925,-0.6907,-0.6898,-0.69,-0.6897,-0.6902,-0.6928,-0.6928,-0.6929,-0.6929,0,-0.6242,-0.6258,-0.6304,-0.6357,-0.6397,-0.6441,-0.6485,-0.6509,-0.6552,-0.6591,-0.6649,-0.6686,-0.6762,-0.682,-0.6882,-0.6915,-0.693,-0.6934,-0.6945,-0.6936,-0.6921,-0.6931,-0.6855,-0.6932,-0.6932,-0.6932,-0.6932,-0.6931,-0.6275,-0.6309,-0.6358,-0.6409,-0.6446,-0.6487,-0.6525,-0.656,-0.6608,-0.6671,-0.6689,-0.675,-0.6802,-0.6886,-0.6921,-0.697,-0.6968,-0.6983,-0.6987,-0.699,-0.699,-0.6913,-0.6982,-0.6982,-0.6982,-0.6982,-0.6982,0,-0.6328,-0.6361,-0.6408,-0.6469,-0.651,-0.6519,-0.6569,-0.6604,-0.6656,-0.6703,-0.675,-0.6818,-0.6875,-0.6923,-0.6982,-0.7013,-0.7022,-0.7028,-0.7026,-0.7034,-0.6988,-0.6974,-0.702,-0.702,-0.702,-0.702,-0.702,-0.702,-0.6361,-0.642,-0.6441,-0.6519,-0.6552,-0.661,-0.6639,-0.6678,-0.6715,-0.6789,-0.6836,-0.6866,-0.6914,-0.6978,-0.7032,-0.7045,-0.7066,-0.7071,-0.7085,-0.7042,-0.7037,-0.7033,-0.702,-0.7075,-0.7075,-0.7127,-0.7128,-0.7128]},{"header":{"parameterUnit":"m.s-1","parameterCategory":1,"la1":30.2991,"la2":30.254,"lo1":-89.0895,"lo2":-89.0444,"dy":0.0017,"dx":0.0017,"nx":28,"ny":28,"refTime":"2024-08-03T21:00:00:Z","depth":0,"parameterNumber":3,"parameterNumberName":"V-component_of_WINDS"},"data":[0,0,0,0,0,0,0,0,0,0,0,0,0,0,0,0,0,0,0,0,0,0,0,0,0,0,0,0,0,0,0,0,0,0,0,0,0,0,0,0,0,0,0,0,0,0,0,0,0,0,0,0,0,0,0,0,0,0,1.4452,1.4453,0,1.4527,1.4528,1.4529,1.455,1.4549,1.4549,1.4548,1.4629,1.4632,1.4634,0,0,0,0,0,0,0,0,0,0,0,0,0,1.4331,1.4333,1.4452,1.4453,1.4454,1.4527,1.4528,1.4529,1.455,1.4549,1.4549,1.4548,1.4629,1.4632,1.4635,0,0,0,0,0,0,0,0,0,0,0,0,0,1.4392,1.4333,1.4452,1.4473,1.4476,1.4526,1.4528,1.4529,1.455,1.4549,1.4548,1.4548,1.4628,1.4631,1.4635,1.4672,0,0,1.4647,1.4649,0,0,0,0,0,0,0,0,1.4389,1.4397,1.4469,1.4472,1.4475,1.4528,1.4515,1.4577,1.455,1.4522,1.4548,1.4547,1.4597,1.4603,1.4619,1.4676,1.4679,1.4647,1.465,1.4651,1.4652,0,0,0,0,0,0,0,1.4384,1.4394,1.4482,1.447,1.4474,1.448,1.4488,1.4527,1.4562,1.4524,1.4526,1.4534,1.4598,1.4615,1.4621,1.468,1.4647,1.4651,1.4653,1.4654,1.4769,1.477,0,0,0,0,0,0,1.4376,1.439,1.448,1.4484,1.4429,1.4482,1.4491,1.4512,1.4562,1.4569,1.4535,1.4535,1.4608,1.4616,1.4624,1.4668,1.4651,1.4655,1.4657,1.4769,1.4769,1.477,0,0,0,0,0,0,1.4373,1.4384,1.4477,1.4437,1.445,1.4485,1.4508,1.4514,1.453,1.4569,1.4576,1.4545,1.4608,1.4618,1.4659,1.4672,1.4657,1.466,1.4768,1.4769,1.477,1.4759,0,0,0,0,0,0,1.437,1.4383,1.4397,1.4438,1.4452,1.451,1.4509,1.4515,1.4536,1.4537,1.4581,1.4588,1.4609,1.4653,1.4663,1.4677,1.4663,1.4767,1.4768,1.477,1.4759,1.476,1.4761,0,0,0,0,0,1.4365,1.4392,1.4397,1.4408,1.4469,1.451,1.4519,1.4541,1.4537,1.4552,1.4576,1.4586,1.4668,1.4657,1.4668,1.4683,1.4766,1.4768,1.4769,1.4758,1.476,1.4761,0,0,0,0,0,0,1.4354,1.4398,1.4404,1.4445,1.4473,1.4514,1.4533,1.4542,1.4574,1.4574,1.4601,1.4611,1.4649,1.4671,1.4657,1.4721,1.4718,1.4722,1.4705,1.4707,1.4708,1.4702,1.4666,0,0,0,0,0,1.4356,1.4384,1.4422,1.4454,1.4468,1.4498,1.4516,1.453,1.4562,1.4575,1.4603,1.4634,1.4667,1.4688,1.4721,1.4762,1.4771,1.4778,1.4779,1.4779,1.4783,1.4805,1.4807,1.4776,1.4776,1.4776,0,0,1.4361,1.4389,1.4405,1.4452,1.4476,1.4506,1.4508,1.454,1.4562,1.458,1.462,1.4641,1.4678,1.4718,1.4738,1.4737,1.4793,1.4782,1.4782,1.4785,1.4807,1.4809,1.4812,1.4777,1.4777,1.4777,0,0,1.4385,1.4409,1.4437,1.446,1.4495,1.4515,1.4521,1.456,1.4574,1.4613,1.4627,1.4655,1.4711,1.4736,1.4756,1.4786,1.4796,1.4796,1.4802,1.4823,1.4826,1.4828,1.4838,1.4841,1.4799,1.4799,1.4799,0,1.4388,1.4431,1.4452,1.4481,1.4501,1.4517,1.4546,1.4568,1.4613,1.4626,1.4625,1.4694,1.472,1.4765,1.4772,1.4788,1.4797,1.4792,1.4823,1.4826,1.4828,1.4838,1.4842,1.4799,1.4799,1.4799,1.4799,0,1.4432,1.4462,1.4481,1.452,1.4543,1.4572,1.4597,1.4617,1.4629,1.4648,1.4688,1.4719,1.4757,1.4769,1.4782,1.4816,1.4814,1.4818,1.4815,1.4831,1.484,1.4844,1.4798,1.4798,1.4798,1.4799,0,0,1.4454,1.4501,1.4508,1.4525,1.4564,1.4588,1.4617,1.4652,1.4669,1.4699,1.4724,1.477,1.4772,1.4795,1.481,1.4829,1.4849,1.483,1.4831,1.4832,1.4888,1.4885,1.4889,1.4855,1.4856,1.4857,1.4884,0,1.4482,1.4534,1.4551,1.4595,1.4622,1.4636,1.4661,1.4688,1.4706,1.4733,1.4754,1.4785,1.4787,1.48,1.4819,1.4842,1.4861,1.4841,1.488,1.4881,1.487,1.4894,1.4892,1.4916,1.4888,1.4889,1.489,0,1.4523,1.455,1.4595,1.4627,1.464,1.4662,1.4695,1.472,1.475,1.4762,1.4785,1.4799,1.4831,1.4825,1.487,1.4856,1.4873,1.4887,1.4888,1.4893,1.4887,1.4899,1.4925,1.4928,1.4896,1.4895,1.4895,0,1.4533,1.4581,1.4613,1.4628,1.4667,1.4682,1.47,1.4729,1.4748,1.4777,1.4789,1.4822,1.484,1.4866,1.4887,1.4882,1.4929,1.4926,1.4941,1.494,1.4951,1.495,1.4979,1.4962,1.4962,1.4962,1.4961,0,1.4563,1.459,1.4618,1.4638,1.4668,1.4688,1.4718,1.4737,1.4762,1.4787,1.4801,1.4824,1.4851,1.4878,1.4895,1.4929,1.4937,1.4948,1.4952,1.4947,1.4945,1.4959,1.4957,1.4963,1.4962,1.4962,1.4962,0,1.458,1.46,1.4636,1.4669,1.4677,1.4698,1.4727,1.4747,1.4765,1.4795,1.4804,1.4832,1.4864,1.4888,1.493,1.4941,1.4977,1.4981,1.4966,1.4968,1.4981,1.4979,1.502,1.5026,1.5004,1.5004,1.5004,0,1.4598,1.4619,1.4652,1.4668,1.4684,1.4711,1.4729,1.4749,1.4768,1.4802,1.4819,1.4851,1.4877,1.4927,1.4953,1.4984,1.499,1.5002,1.4995,1.4988,1.499,1.4988,1.499,1.5003,1.5003,1.5003,1.5003,0,1.4628,1.4636,1.4661,1.4689,1.4709,1.4733,1.4757,1.477,1.4794,1.4815,1.4846,1.4866,1.4907,1.4939,1.4972,1.4992,1.5002,1.5005,1.501,1.5004,1.4994,1.4999,1.4968,1.5004,1.5004,1.5004,1.5004,1.5004,1.4646,1.4664,1.4689,1.4716,1.4735,1.4757,1.4776,1.4795,1.4821,1.4854,1.4865,1.4896,1.4925,1.497,1.4989,1.5015,1.5015,1.5023,1.5025,1.5026,1.5025,1.4989,1.5021,1.5021,1.5021,1.5022,1.5022,0,1.4676,1.4692,1.4716,1.4747,1.4768,1.4773,1.4799,1.4817,1.4844,1.4868,1.4893,1.4928,1.4958,1.4984,1.5015,1.5031,1.5036,1.5038,1.5038,1.5042,1.5024,1.5016,1.5033,1.5033,1.5033,1.5033,1.5033,1.5033,1.4694,1.4724,1.4734,1.4774,1.479,1.4819,1.4834,1.4853,1.4872,1.491,1.4934,1.495,1.4975,1.5007,1.5035,1.5042,1.5053,1.5054,1.5062,1.5045,1.5043,1.5042,1.5035,1.5056,1.5056,1.5078,1.5078,1.5079]}]]